STARLINK-33977

Satellite information

Favourite Embed

Satellite Type and Status

PAYLOADIN ORBIT

Key statistics

Satellite STARLINK-33977 at a glance.

Uptime

183

Days in orbit

Revolutions

≈ 15.0

Per day

Orbit

LEO

Low Earth Orbit

Inclination

70.0

Latest

Satellite identification and parameters

Extended collection of information and parameters for STARLINK-33977.

Object identification

Identified? True

Debris? False

Object name: STARLINK-33977

International designator: 2025-126A

Object number (NORAD): 64344

Object ID (CCSDS): 64344

Country: UNITED STATES OF AMERICA (US)

Current information (Y/N): Y

RCS size: LARGE

Orbital parameters

Period: 96.106 minutes

Inclination: 70.0017 deg

SMA: 6950.156 km

Apoapsis: 573.907 km

Periapsis: 570.135 km

RAAN: 255.0631 deg

Eccentricy: 0.00027135

Argument of periapsis: 274.5365 deg

Mean anomaly: 85.5484 deg

Mean motion: 14.98341888 rev/day

Mean motion (dot): 0.00005339 rev/day2

B* drag term: 0.00045478214 1/REarth

Two-line elements (TLE)

Creation date: Dec. 12, 2025, 10:14 a.m.

Reference frame: TEME

Reference center: EARTH

Epoch: Dec. 12, 2025, 4:01 a.m. UTC

TLE line 0: 0 STARLINK-33977

TLE line 1: 1 64344U 25126A 25346.16791908 .00005339 00000-0 45478-3 0 9999

TLE line 2: 2 64344 70.0017 255.0631 0002714 274.5365 85.5484 14.98341888 28789

Live tracking on map

Real-time ground track for satellite STARLINK-33977.

In-orbit conjunctions

There are no conjunctions computed for STARLINK-33977, at the moment. Check back to stay up to date, as we update our databases every day.

Go to all conjunctions

Associated space launch

A batch of 26 satellites for the Starlink mega-constellation - SpaceX's project for space-based Internet communication system.

STARLINK-33977 was lifted into orbit during the mission ‘Falcon 9 Block 5 | Starlink Group 15-6’, on board a Falcon 9 space rocket.

The launch took place on June 13, 2025, 1:54 a.m. from Space Launch Complex 4E.

For more information about the launch, click the button.

Launch to space Falcon 9 Block 5 | Starlink Group 15-6
Falcon 9 Block 5 | Starlink Group 15-6

Agency: SpaceX

Status: Launch Successful

Launch date: June 13, 2025, 1:54 a.m. UTC

Rocket: Falcon 9

Launch pad: Space Launch Complex 4E

Location: Vandenberg SFB, CA, USA

...

Latest news about this satellite

News about space launch
Live coverage: SpaceX to launch 23 Starlink satellites on Falcon 9 rocket from Vandenberg SFB

The Starlink 15-6 mission will add another 26 satellites into SpaceX’s low Earth orbit constellation. Teams are targeting liftoff from pad 4E at 6:54 p.m. PDT (9:54 p.m. EDT, 0154 UTC).

News about space launch
Launch Roundup: ULA to launch Kuiper’s second batch of satellites, SpaceX to launch Axiom crew to ISS

SpaceX will launch Axiom Space’s fourth private crewed mission to the International Space Station (ISS)… The post Launch Roundup: ULA to launch Kuiper’s second batch of satellites, SpaceX to launch Axiom crew to ISS appeared first on NASASpaceFlight.com.


Newsletter sign-up

Weekly statistics, charts and insights to help you stay on top of the space industry.